Location: Pasadena, ca
(34.1243°N, 118.1037°W)
Time: 07:43:25
(UTC-07:00)

Vanguard 1 Rocket - Visible Passes

Search period start: 16 July 2018 00:00
Search period end: 26 July 2018 00:00
Orbit: 652 x 4225 km, 34.3° (Epoch: 15 July)

Date Brightness Start Highest point End Pass type
(mag) Time Alt. Az. Time Alt. Az. Time Alt. Az.
17 Jul 11.9 04:43:38 10° SSE 04:52:51 13° SE 05:01:13 10° ESE visible
19 Jul 11.7 04:40:25 10° S 04:55:37 19° SE 05:08:47 10° E visible
21 Jul 11.6 04:39:29 10° S 04:58:11 26° SE 05:14:07 10° E visible
22 Jul 11.7 03:32:22 10° SSE 03:44:13 15° SE 03:55:34 10° ESE visible
23 Jul 11.4 04:39:37 10° SSW 05:00:34 33° SE 05:18:30 10° E visible
24 Jul 11.5 03:30:25 10° S 03:46:35 21° SE 04:02:07 10° E visible
25 Jul 11.7 02:29:42 10° SE 02:32:59 10° SE 02:36:16 10° ESE visible
25 Jul 11.3 04:40:25 10° SSW 05:02:51 40° SE 05:22:19 10° E visible
